Year,Month,Day,Hour,Minute,Value (Times are PST for temperature in C)
2009,10,09,00,00,10.90
2009,10,09,00,01,10.90
2009,10,09,00,02,10.90
2009,10,09,00,03,10.90
2009,10,09,00,04,10.90
2009,10,09,00,05,10.80
2009,10,09,00,06,10.80
2009,10,09,00,07,10.80
2009,10,09,00,08,10.90
2009,10,09,00,09,10.90
2009,10,09,00,10,10.90
2009,10,09,00,11,10.90
2009,10,09,00,12,10.90
2009,10,09,00,13,10.90
2009,10,09,00,14,10.90
2009,10,09,00,15,10.90
2009,10,09,00,16,10.90
2009,10,09,00,17,10.90
2009,10,09,00,18,10.90
2009,10,09,00,19,11.00
2009,10,09,00,20,11.00
2009,10,09,00,21,11.00
2009,10,09,00,22,11.10
2009,10,09,00,23,11.10
2009,10,09,00,24,11.10
2009,10,09,00,25,11.10
2009,10,09,00,26,11.10
2009,10,09,00,27,11.20
2009,10,09,00,28,11.20
2009,10,09,00,29,11.20
2009,10,09,00,30,11.20
2009,10,09,00,31,11.20
2009,10,09,00,32,11.20
2009,10,09,00,33,11.20
2009,10,09,00,34,11.20
2009,10,09,00,35,11.20
2009,10,09,00,36,11.20
2009,10,09,00,37,11.20
2009,10,09,00,38,11.20
2009,10,09,00,39,11.20
2009,10,09,00,40,11.20
2009,10,09,00,41,11.20
2009,10,09,00,42,11.20
2009,10,09,00,43,11.20
2009,10,09,00,44,11.20
2009,10,09,00,45,11.20
2009,10,09,00,46,11.20
2009,10,09,00,47,11.20
2009,10,09,00,48,11.20
2009,10,09,00,49,11.20
2009,10,09,00,50,11.20
2009,10,09,00,51,11.20
2009,10,09,00,52,11.20
2009,10,09,00,53,11.20
2009,10,09,00,54,11.20
2009,10,09,00,55,11.20
2009,10,09,00,56,11.20
2009,10,09,00,57,11.20
2009,10,09,00,58,11.20
2009,10,09,00,59,11.20
2009,10,09,01,00,11.20
2009,10,09,01,01,11.20
2009,10,09,01,02,11.20
2009,10,09,01,03,11.20
2009,10,09,01,04,11.20
2009,10,09,01,05,11.10
2009,10,09,01,06,11.10
2009,10,09,01,07,11.10
2009,10,09,01,08,11.10
2009,10,09,01,09,11.10
2009,10,09,01,10,11.10
2009,10,09,01,11,11.10
2009,10,09,01,12,11.10
2009,10,09,01,13,11.10
2009,10,09,01,14,11.00
2009,10,09,01,15,11.00
2009,10,09,01,16,11.00
2009,10,09,01,17,11.00
2009,10,09,01,18,11.00
2009,10,09,01,19,11.00
2009,10,09,01,20,11.00
2009,10,09,01,21,11.00
2009,10,09,01,22,11.00
2009,10,09,01,23,11.00
2009,10,09,01,24,11.10
2009,10,09,01,25,11.10
2009,10,09,01,26,11.10
2009,10,09,01,27,11.10
2009,10,09,01,28,11.10
2009,10,09,01,29,11.10
2009,10,09,01,30,11.20
2009,10,09,01,31,11.20
2009,10,09,01,32,11.20
2009,10,09,01,33,11.30
2009,10,09,01,34,11.30
2009,10,09,01,35,11.30
2009,10,09,01,36,11.40
2009,10,09,01,37,11.40
2009,10,09,01,38,11.40
2009,10,09,01,39,11.40
2009,10,09,01,40,11.40
2009,10,09,01,41,11.40
2009,10,09,01,42,11.40
2009,10,09,01,43,11.40
2009,10,09,01,44,11.40
2009,10,09,01,45,11.40
2009,10,09,01,46,11.40
2009,10,09,01,47,11.40
2009,10,09,01,48,11.40
2009,10,09,01,49,11.40
2009,10,09,01,50,11.40
2009,10,09,01,51,11.40
2009,10,09,01,52,11.40
2009,10,09,01,53,11.40
2009,10,09,01,54,11.40
2009,10,09,01,55,11.40
2009,10,09,01,56,11.40
2009,10,09,01,57,11.40
2009,10,09,01,58,11.40
2009,10,09,01,59,11.40
2009,10,09,02,00,11.40
2009,10,09,02,01,11.50
2009,10,09,02,02,11.50
2009,10,09,02,03,11.50
2009,10,09,02,04,11.50
2009,10,09,02,05,11.50
2009,10,09,02,06,11.50
2009,10,09,02,07,11.60
2009,10,09,02,08,11.60
2009,10,09,02,09,11.60
2009,10,09,02,10,11.60
2009,10,09,02,11,11.60
2009,10,09,02,12,11.60
2009,10,09,02,13,11.60
2009,10,09,02,14,11.60
2009,10,09,02,15,11.60
2009,10,09,02,16,11.60
2009,10,09,02,17,11.60
2009,10,09,02,18,11.60
2009,10,09,02,19,11.60
2009,10,09,02,20,11.60
2009,10,09,02,21,11.60
2009,10,09,02,22,11.60
2009,10,09,02,23,11.60
2009,10,09,02,24,11.60
2009,10,09,02,25,11.60
2009,10,09,02,26,11.60
2009,10,09,02,27,11.60
2009,10,09,02,28,11.60
2009,10,09,02,29,11.60
2009,10,09,02,30,11.60
2009,10,09,02,31,11.60
2009,10,09,02,32,11.60
2009,10,09,02,33,11.60
2009,10,09,02,34,11.60
2009,10,09,02,35,11.60
2009,10,09,02,36,11.60
2009,10,09,02,37,11.60
2009,10,09,02,38,11.60
2009,10,09,02,39,11.60
2009,10,09,02,40,11.60
2009,10,09,02,41,11.60
2009,10,09,02,42,11.60
2009,10,09,02,43,11.60
2009,10,09,02,44,11.60
2009,10,09,02,45,11.60
2009,10,09,02,46,11.60
2009,10,09,02,47,11.60
2009,10,09,02,48,11.60
2009,10,09,02,49,11.60
2009,10,09,02,50,11.60
2009,10,09,02,51,11.60
2009,10,09,02,52,11.60
2009,10,09,02,53,11.60
2009,10,09,02,54,11.60
2009,10,09,02,55,11.60
2009,10,09,02,56,11.60
2009,10,09,02,57,11.60
2009,10,09,02,58,11.50
2009,10,09,02,59,11.50
2009,10,09,03,00,11.50
2009,10,09,03,01,11.50
2009,10,09,03,02,11.50
2009,10,09,03,03,11.50
2009,10,09,03,04,11.50
2009,10,09,03,05,11.50
2009,10,09,03,06,11.50
2009,10,09,03,07,11.60
2009,10,09,03,08,11.60
2009,10,09,03,09,11.60
2009,10,09,03,10,11.60
2009,10,09,03,11,11.60
2009,10,09,03,12,11.60
2009,10,09,03,13,11.60
2009,10,09,03,14,11.60
2009,10,09,03,15,11.60
2009,10,09,03,16,11.60
2009,10,09,03,17,11.60
2009,10,09,03,18,11.60
2009,10,09,03,19,11.60
2009,10,09,03,20,11.60
2009,10,09,03,21,11.50
2009,10,09,03,22,11.50
2009,10,09,03,23,11.50
2009,10,09,03,24,11.50
2009,10,09,03,25,11.40
2009,10,09,03,26,11.40
2009,10,09,03,27,11.40
2009,10,09,03,28,11.40
2009,10,09,03,29,11.30
2009,10,09,03,30,11.30
2009,10,09,03,31,11.30
2009,10,09,03,32,11.30
2009,10,09,03,33,11.30
2009,10,09,03,34,11.20
2009,10,09,03,35,11.20
2009,10,09,03,36,11.20
2009,10,09,03,37,11.20
2009,10,09,03,38,11.20
2009,10,09,03,39,11.20
2009,10,09,03,40,11.10
2009,10,09,03,41,11.10
2009,10,09,03,42,11.10
2009,10,09,03,43,11.10
2009,10,09,03,44,11.10
2009,10,09,03,45,11.10
2009,10,09,03,46,11.00
2009,10,09,03,47,11.00
2009,10,09,03,48,11.00
2009,10,09,03,49,11.00
2009,10,09,03,50,10.90
2009,10,09,03,51,10.90
2009,10,09,03,52,10.90
2009,10,09,03,53,10.80
2009,10,09,03,54,10.80
2009,10,09,03,55,10.80
2009,10,09,03,56,10.80
2009,10,09,03,57,10.70
2009,10,09,03,58,10.70
2009,10,09,03,59,10.70
2009,10,09,04,00,10.60
2009,10,09,04,01,10.60
2009,10,09,04,02,10.60
2009,10,09,04,03,10.50
2009,10,09,04,04,10.50
2009,10,09,04,05,10.50
2009,10,09,04,06,10.40
2009,10,09,04,07,10.40
2009,10,09,04,08,10.40
2009,10,09,04,09,10.40
2009,10,09,04,10,10.40
2009,10,09,04,11,10.40
2009,10,09,04,12,10.40
2009,10,09,04,13,10.40
2009,10,09,04,14,10.40
2009,10,09,04,15,10.40
2009,10,09,04,16,10.40
2009,10,09,04,17,10.40
2009,10,09,04,18,10.40
2009,10,09,04,19,10.40
2009,10,09,04,20,10.40
2009,10,09,04,21,10.40
2009,10,09,04,22,10.40
2009,10,09,04,23,10.30
2009,10,09,04,24,10.30
2009,10,09,04,25,10.30
2009,10,09,04,26,10.30
2009,10,09,04,27,10.20
2009,10,09,04,28,10.20
2009,10,09,04,29,10.20
2009,10,09,04,30,10.20
2009,10,09,04,31,10.20
2009,10,09,04,32,10.10
2009,10,09,04,33,10.10
2009,10,09,04,34,10.10
2009,10,09,04,35,10.10
2009,10,09,04,36,10.10
2009,10,09,04,37,10.10
2009,10,09,04,38,10.10
2009,10,09,04,39,10.00
2009,10,09,04,40,10.00
2009,10,09,04,41,10.00
2009,10,09,04,42,9.90
2009,10,09,04,43,9.90
2009,10,09,04,44,9.90
2009,10,09,04,45,9.90
2009,10,09,04,46,9.90
2009,10,09,04,47,9.90
2009,10,09,04,48,9.90
2009,10,09,04,49,9.90
2009,10,09,04,50,9.80
2009,10,09,04,51,9.80
2009,10,09,04,52,9.80
2009,10,09,04,53,9.80
2009,10,09,04,54,9.80
2009,10,09,04,55,9.80
2009,10,09,04,56,9.80
2009,10,09,04,57,9.80
2009,10,09,04,58,9.80
2009,10,09,04,59,9.80
2009,10,09,05,00,9.70
2009,10,09,05,01,9.70
2009,10,09,05,02,9.70
2009,10,09,05,03,9.70
2009,10,09,05,04,9.70
2009,10,09,05,05,9.70
2009,10,09,05,06,9.70
2009,10,09,05,07,9.70
2009,10,09,05,08,9.70
2009,10,09,05,09,9.70
2009,10,09,05,10,9.70
2009,10,09,05,11,9.70
2009,10,09,05,12,9.80
2009,10,09,05,13,9.80
2009,10,09,05,14,9.80
2009,10,09,05,15,9.80
2009,10,09,05,16,9.80
2009,10,09,05,17,9.80
2009,10,09,05,18,9.70
2009,10,09,05,19,9.70
2009,10,09,05,20,9.70
2009,10,09,05,21,9.70
2009,10,09,05,22,9.60
2009,10,09,05,23,9.60
2009,10,09,05,24,9.60
2009,10,09,05,25,9.50
2009,10,09,05,26,9.50
2009,10,09,05,27,9.40
2009,10,09,05,28,9.40
2009,10,09,05,29,9.30
2009,10,09,05,30,9.30
2009,10,09,05,31,9.30
2009,10,09,05,32,9.30
2009,10,09,05,33,9.30
2009,10,09,05,34,9.30
2009,10,09,05,35,9.30
2009,10,09,05,36,9.30
2009,10,09,05,37,9.30
2009,10,09,05,38,9.30
2009,10,09,05,39,9.30
2009,10,09,05,40,9.30
2009,10,09,05,41,9.30
2009,10,09,05,42,9.30
2009,10,09,05,43,9.20
2009,10,09,05,44,9.20
2009,10,09,05,45,9.20
2009,10,09,05,46,9.20
2009,10,09,05,47,9.20
2009,10,09,05,48,9.20
2009,10,09,05,49,9.20
2009,10,09,05,50,9.20
2009,10,09,05,51,9.20
2009,10,09,05,52,9.20
2009,10,09,05,53,9.20
2009,10,09,05,54,9.20
2009,10,09,05,55,9.20
2009,10,09,05,56,9.20
2009,10,09,05,57,9.20
2009,10,09,05,58,9.20
2009,10,09,05,59,9.20
2009,10,09,06,00,9.20
2009,10,09,06,01,9.10
2009,10,09,06,02,9.10
2009,10,09,06,03,9.10
2009,10,09,06,04,9.10
2009,10,09,06,05,9.10
2009,10,09,06,06,9.10
2009,10,09,06,07,9.10
2009,10,09,06,08,9.10
2009,10,09,06,09,9.10
2009,10,09,06,10,9.10
2009,10,09,06,11,9.10
2009,10,09,06,12,9.10
2009,10,09,06,13,9.10
2009,10,09,06,14,9.20
2009,10,09,06,15,9.20
2009,10,09,06,16,9.20
2009,10,09,06,17,9.20
2009,10,09,06,18,9.20
2009,10,09,06,19,9.20
2009,10,09,06,20,9.20
2009,10,09,06,21,9.20
2009,10,09,06,22,9.20
2009,10,09,06,23,9.20
2009,10,09,06,24,9.20
2009,10,09,06,25,9.20
2009,10,09,06,26,9.20
2009,10,09,06,27,9.20
2009,10,09,06,28,9.30
2009,10,09,06,29,9.30
2009,10,09,06,30,9.30
2009,10,09,06,31,9.30
2009,10,09,06,32,9.30
2009,10,09,06,33,9.30
2009,10,09,06,34,9.30
2009,10,09,06,35,9.30
2009,10,09,06,36,9.30
2009,10,09,06,37,9.30
2009,10,09,06,38,9.30
2009,10,09,06,39,9.30
2009,10,09,06,40,9.30
2009,10,09,06,41,9.30
2009,10,09,06,42,9.20
2009,10,09,06,43,9.20
2009,10,09,06,44,9.20
2009,10,09,06,45,9.20
2009,10,09,06,46,9.30
2009,10,09,06,47,9.30
2009,10,09,06,48,9.30
2009,10,09,06,49,9.30
2009,10,09,06,50,9.30
2009,10,09,06,51,9.30
2009,10,09,06,52,9.30
2009,10,09,06,53,9.30
2009,10,09,06,54,9.20
2009,10,09,06,55,9.20
2009,10,09,06,56,9.20
2009,10,09,06,57,9.10
2009,10,09,06,58,9.10
2009,10,09,06,59,9.10
2009,10,09,07,00,9.10
2009,10,09,07,01,9.10
2009,10,09,07,02,9.00
2009,10,09,07,03,9.00
2009,10,09,07,04,9.00
2009,10,09,07,05,9.00
2009,10,09,07,06,9.00
2009,10,09,07,07,9.00
2009,10,09,07,08,9.00
2009,10,09,07,09,9.00
2009,10,09,07,10,8.90
2009,10,09,07,11,8.90
2009,10,09,07,12,8.90
2009,10,09,07,13,8.90
2009,10,09,07,14,8.90
2009,10,09,07,15,8.90
2009,10,09,07,16,8.80
2009,10,09,07,17,8.80
2009,10,09,07,18,8.80
2009,10,09,07,19,8.80
2009,10,09,07,20,8.80
2009,10,09,07,21,8.90
2009,10,09,07,22,8.90
2009,10,09,07,23,8.90
2009,10,09,07,24,8.90
2009,10,09,07,25,8.90
2009,10,09,07,26,8.90
2009,10,09,07,27,8.90
2009,10,09,07,28,8.90
2009,10,09,07,29,9.00
2009,10,09,07,30,9.00
2009,10,09,07,31,9.00
2009,10,09,07,32,9.00
2009,10,09,07,33,9.00
2009,10,09,07,34,9.00
2009,10,09,07,35,9.00
2009,10,09,07,36,9.00
2009,10,09,07,37,9.00
2009,10,09,07,38,9.00
2009,10,09,07,39,9.00
2009,10,09,07,40,9.00
2009,10,09,07,41,9.00
2009,10,09,07,42,9.10
2009,10,09,07,43,9.10
2009,10,09,07,44,9.10
2009,10,09,07,45,9.00
2009,10,09,07,46,9.00
2009,10,09,07,47,9.00
2009,10,09,07,48,9.00
2009,10,09,07,49,8.90
2009,10,09,07,50,8.90
2009,10,09,07,51,8.90
2009,10,09,07,52,8.90
2009,10,09,07,53,8.80
2009,10,09,07,54,8.80
2009,10,09,07,55,8.80
2009,10,09,07,56,8.80
2009,10,09,07,57,8.70
2009,10,09,07,58,8.70
2009,10,09,07,59,8.70
2009,10,09,08,00,8.70
2009,10,09,08,01,8.70
2009,10,09,08,02,8.70
2009,10,09,08,03,8.70
2009,10,09,08,04,8.70
2009,10,09,08,05,8.70
2009,10,09,08,06,8.70
2009,10,09,08,07,8.70
2009,10,09,08,08,8.70
2009,10,09,08,09,8.70
2009,10,09,08,10,8.70
2009,10,09,08,11,8.70
2009,10,09,08,12,8.70
2009,10,09,08,13,8.70
2009,10,09,08,14,8.80
2009,10,09,08,15,8.80
2009,10,09,08,16,8.80
2009,10,09,08,17,8.80
2009,10,09,08,18,8.80
2009,10,09,08,19,8.80
2009,10,09,08,20,8.80
2009,10,09,08,21,8.90
2009,10,09,08,22,8.90
2009,10,09,08,23,8.90
2009,10,09,08,24,8.90
2009,10,09,08,25,8.90
2009,10,09,08,26,8.90
2009,10,09,08,27,8.90
2009,10,09,08,28,9.00
2009,10,09,08,29,9.00
2009,10,09,08,30,9.00
2009,10,09,08,31,9.00
2009,10,09,08,32,9.10
2009,10,09,08,33,9.10
2009,10,09,08,34,9.10
2009,10,09,08,35,9.10
2009,10,09,08,36,9.10
2009,10,09,08,37,9.10
2009,10,09,08,38,9.10
2009,10,09,08,39,9.10
2009,10,09,08,40,9.10
2009,10,09,08,41,9.10
2009,10,09,08,42,9.20
2009,10,09,08,43,9.20
2009,10,09,08,44,9.20
2009,10,09,08,45,9.20
2009,10,09,08,46,9.20
2009,10,09,08,47,9.30
2009,10,09,08,48,9.30
2009,10,09,08,49,9.30
2009,10,09,08,50,9.30
2009,10,09,08,51,9.30
2009,10,09,08,52,9.30
2009,10,09,08,53,9.40
2009,10,09,08,54,9.40
2009,10,09,08,55,9.40
2009,10,09,08,56,9.40
2009,10,09,08,57,9.50
2009,10,09,08,58,9.50
2009,10,09,08,59,9.60
2009,10,09,09,00,9.60
2009,10,09,09,01,9.60
2009,10,09,09,02,9.60
2009,10,09,09,03,9.70
2009,10,09,09,04,9.70
2009,10,09,09,05,9.70
2009,10,09,09,06,9.80
2009,10,09,09,07,9.80
2009,10,09,09,08,9.80
2009,10,09,09,09,9.90
2009,10,09,09,10,9.90
2009,10,09,09,11,10.00
2009,10,09,09,12,10.00
2009,10,09,09,13,10.10
2009,10,09,09,14,10.10
2009,10,09,09,15,10.10
2009,10,09,09,16,10.20
2009,10,09,09,17,10.20
2009,10,09,09,18,10.30
2009,10,09,09,19,10.30
2009,10,09,09,20,10.30
2009,10,09,09,21,10.40
2009,10,09,09,22,10.40
2009,10,09,09,23,10.50
2009,10,09,09,24,10.50
2009,10,09,09,25,10.60
2009,10,09,09,26,10.60
2009,10,09,09,27,10.70
2009,10,09,09,28,10.80
2009,10,09,09,29,10.80
2009,10,09,09,30,10.80
2009,10,09,09,31,10.90
2009,10,09,09,32,10.90
2009,10,09,09,33,11.00
2009,10,09,09,34,11.10
2009,10,09,09,35,11.10
2009,10,09,09,36,11.20
2009,10,09,09,37,11.20
2009,10,09,09,38,11.30
2009,10,09,09,39,11.30
2009,10,09,09,40,11.30
2009,10,09,09,41,11.40
2009,10,09,09,42,11.50
2009,10,09,09,43,11.50
2009,10,09,09,44,11.60
2009,10,09,09,45,11.60
2009,10,09,09,46,11.60
2009,10,09,09,47,11.70
2009,10,09,09,48,11.70
2009,10,09,09,49,11.70
2009,10,09,09,50,11.70
2009,10,09,09,51,11.70
2009,10,09,09,52,11.80
2009,10,09,09,53,11.80
2009,10,09,09,54,11.80
2009,10,09,09,55,11.80
2009,10,09,09,56,11.90
2009,10,09,09,57,11.90
2009,10,09,09,58,11.90
2009,10,09,09,59,11.90
2009,10,09,10,00,12.00
2009,10,09,10,01,12.00
2009,10,09,10,02,12.10
2009,10,09,10,03,12.10
2009,10,09,10,04,12.10
2009,10,09,10,05,12.10
2009,10,09,10,06,12.20
2009,10,09,10,07,12.20
2009,10,09,10,08,12.20
2009,10,09,10,09,12.20
2009,10,09,10,10,12.30
2009,10,09,10,11,12.30
2009,10,09,10,12,12.30
2009,10,09,10,13,12.30
2009,10,09,10,14,12.30
2009,10,09,10,15,12.30
2009,10,09,10,16,12.30
2009,10,09,10,17,12.30
2009,10,09,10,18,12.40
2009,10,09,10,19,12.50
2009,10,09,10,20,12.60
2009,10,09,10,21,12.70
2009,10,09,10,22,12.80
2009,10,09,10,23,12.90
2009,10,09,10,24,12.90
2009,10,09,10,25,13.00
2009,10,09,10,26,13.00
2009,10,09,10,27,12.90
2009,10,09,10,28,12.90
2009,10,09,10,29,12.90
2009,10,09,10,30,12.90
2009,10,09,10,31,12.90
2009,10,09,10,32,12.90
2009,10,09,10,33,12.90
2009,10,09,10,34,12.80
2009,10,09,10,35,12.80
2009,10,09,10,36,12.80
2009,10,09,10,37,12.80
2009,10,09,10,38,12.80
2009,10,09,10,39,12.90
2009,10,09,10,40,13.00
2009,10,09,10,41,13.10
2009,10,09,10,42,13.10
2009,10,09,10,43,13.10
2009,10,09,10,44,13.10
2009,10,09,10,45,13.20
2009,10,09,10,46,13.20
2009,10,09,10,47,13.20
2009,10,09,10,48,13.30
2009,10,09,10,49,13.40
2009,10,09,10,50,13.50
2009,10,09,10,51,13.60
2009,10,09,10,52,13.70
2009,10,09,10,53,13.70
2009,10,09,10,54,13.70
2009,10,09,10,55,13.60
2009,10,09,10,56,13.60
2009,10,09,10,57,13.60
2009,10,09,10,58,13.70
2009,10,09,10,59,13.70
2009,10,09,11,00,13.70
2009,10,09,11,01,13.60
2009,10,09,11,02,13.60
2009,10,09,11,03,13.50
2009,10,09,11,04,13.40
2009,10,09,11,05,13.20
2009,10,09,11,06,13.10
2009,10,09,11,07,13.10
2009,10,09,11,08,13.00
2009,10,09,11,09,12.90
2009,10,09,11,10,12.90
2009,10,09,11,11,12.80
2009,10,09,11,12,12.80
2009,10,09,11,13,12.90
2009,10,09,11,14,12.90
2009,10,09,11,15,12.90
2009,10,09,11,16,12.90
2009,10,09,11,17,12.90
2009,10,09,11,18,12.80
2009,10,09,11,19,12.80
2009,10,09,11,20,12.80
2009,10,09,11,21,12.80
2009,10,09,11,22,12.70
2009,10,09,11,23,12.70
2009,10,09,11,24,12.60
2009,10,09,11,25,12.60
2009,10,09,11,26,12.70
2009,10,09,11,27,12.70
2009,10,09,11,28,12.70
2009,10,09,11,29,12.70
2009,10,09,11,30,12.70
2009,10,09,11,31,12.80
2009,10,09,11,32,12.80
2009,10,09,11,33,12.80
2009,10,09,11,34,12.80
2009,10,09,11,35,12.80
2009,10,09,11,36,12.70
2009,10,09,11,37,12.70
2009,10,09,11,38,12.80
2009,10,09,11,39,12.80
2009,10,09,11,40,12.90
2009,10,09,11,41,12.90
2009,10,09,11,42,13.00
2009,10,09,11,43,13.00
2009,10,09,11,44,13.10
2009,10,09,11,45,13.10
2009,10,09,11,46,13.20
2009,10,09,11,47,13.30
2009,10,09,11,48,13.30
2009,10,09,11,49,13.40
2009,10,09,11,50,13.30
2009,10,09,11,51,13.30
2009,10,09,11,52,13.20
2009,10,09,11,53,13.20
2009,10,09,11,54,13.10
2009,10,09,11,55,13.10
2009,10,09,11,56,13.10
2009,10,09,11,57,13.10
2009,10,09,11,58,13.10
2009,10,09,11,59,13.10
2009,10,09,12,00,13.10
2009,10,09,12,01,13.10
2009,10,09,12,02,13.10
2009,10,09,12,03,13.20
2009,10,09,12,04,13.30
2009,10,09,12,05,13.30
2009,10,09,12,06,13.40
2009,10,09,12,07,13.40
2009,10,09,12,08,13.40
2009,10,09,12,09,13.40
2009,10,09,12,10,13.50
2009,10,09,12,11,13.50
2009,10,09,12,12,13.50
2009,10,09,12,13,13.40
2009,10,09,12,14,13.40
2009,10,09,12,15,13.30
2009,10,09,12,16,13.30
2009,10,09,12,17,13.30
2009,10,09,12,18,13.30
2009,10,09,12,19,13.30
2009,10,09,12,20,13.30
2009,10,09,12,21,13.20
2009,10,09,12,22,13.20
2009,10,09,12,23,13.20
2009,10,09,12,24,13.20
2009,10,09,12,25,13.10
2009,10,09,12,26,13.10
2009,10,09,12,27,13.10
2009,10,09,12,28,13.10
2009,10,09,12,29,13.10
2009,10,09,12,30,13.10
2009,10,09,12,31,13.10
2009,10,09,12,32,13.10
2009,10,09,12,33,13.10
2009,10,09,12,34,13.10
2009,10,09,12,35,13.20
2009,10,09,12,36,13.30
2009,10,09,12,37,13.50
2009,10,09,12,38,13.60
2009,10,09,12,39,13.70
2009,10,09,12,40,13.80
2009,10,09,12,41,13.80
2009,10,09,12,42,13.90
2009,10,09,12,43,13.90
2009,10,09,12,44,13.90
2009,10,09,12,45,14.00
2009,10,09,12,46,14.00
2009,10,09,12,47,14.10
2009,10,09,12,48,14.00
2009,10,09,12,49,13.90
2009,10,09,12,50,13.80
2009,10,09,12,51,13.50
2009,10,09,12,52,13.20
2009,10,09,12,53,13.00
2009,10,09,12,54,12.90
2009,10,09,12,55,12.80
2009,10,09,12,56,12.70
2009,10,09,12,57,12.70
2009,10,09,12,58,12.70
2009,10,09,12,59,12.70
2009,10,09,13,00,12.60
2009,10,09,13,01,12.60
2009,10,09,13,02,12.60
2009,10,09,13,03,12.60
2009,10,09,13,04,12.70
2009,10,09,13,05,12.70
2009,10,09,13,06,12.70
2009,10,09,13,07,12.70
2009,10,09,13,08,12.60
2009,10,09,13,09,12.60
2009,10,09,13,10,12.50
2009,10,09,13,11,12.50
2009,10,09,13,12,12.50
2009,10,09,13,13,12.50
2009,10,09,13,14,12.60
2009,10,09,13,15,12.60
2009,10,09,13,16,12.60
2009,10,09,13,17,12.60
2009,10,09,13,18,12.60
2009,10,09,13,19,12.60
2009,10,09,13,20,12.70
2009,10,09,13,21,12.70
2009,10,09,13,22,12.70
2009,10,09,13,23,12.80
2009,10,09,13,24,12.90
2009,10,09,13,25,13.00
2009,10,09,13,26,13.20
2009,10,09,13,27,13.30
2009,10,09,13,28,13.40
2009,10,09,13,29,13.50
2009,10,09,13,30,13.50
2009,10,09,13,31,13.60
2009,10,09,13,32,13.70
2009,10,09,13,33,13.70
2009,10,09,13,34,13.80
2009,10,09,13,35,13.80
2009,10,09,13,36,13.70
2009,10,09,13,37,13.60
2009,10,09,13,38,13.60
2009,10,09,13,39,13.50
2009,10,09,13,40,13.30
2009,10,09,13,41,13.20
2009,10,09,13,42,13.10
2009,10,09,13,43,13.10
2009,10,09,13,44,13.10
2009,10,09,13,45,13.10
2009,10,09,13,46,13.00
2009,10,09,13,47,12.90
2009,10,09,13,48,12.90
2009,10,09,13,49,12.90
2009,10,09,13,50,12.90
2009,10,09,13,51,12.80
2009,10,09,13,52,12.80
2009,10,09,13,53,12.80
2009,10,09,13,54,12.90
2009,10,09,13,55,12.90
2009,10,09,13,56,12.90
2009,10,09,13,57,12.90
2009,10,09,13,58,12.90
2009,10,09,13,59,13.00
2009,10,09,14,00,13.00
2009,10,09,14,01,13.10
2009,10,09,14,02,13.10
2009,10,09,14,03,13.20
2009,10,09,14,04,13.20
2009,10,09,14,05,13.20
2009,10,09,14,06,13.30
2009,10,09,14,07,13.30
2009,10,09,14,08,13.20
2009,10,09,14,09,13.20
2009,10,09,14,10,13.10
2009,10,09,14,11,13.10
2009,10,09,14,12,13.00
2009,10,09,14,13,13.00
2009,10,09,14,14,13.00
2009,10,09,14,15,12.90
2009,10,09,14,16,12.90
2009,10,09,14,17,12.90
2009,10,09,14,18,12.80
2009,10,09,14,19,12.80
2009,10,09,14,20,12.80
2009,10,09,14,21,12.70
2009,10,09,14,22,12.70
2009,10,09,14,23,12.70
2009,10,09,14,24,12.70
2009,10,09,14,25,12.70
2009,10,09,14,26,12.70
2009,10,09,14,27,12.80
2009,10,09,14,28,12.80
2009,10,09,14,29,12.80
2009,10,09,14,30,12.80
2009,10,09,14,31,12.80
2009,10,09,14,32,12.80
2009,10,09,14,33,12.80
2009,10,09,14,34,12.80
2009,10,09,14,35,12.80
2009,10,09,14,36,12.80
2009,10,09,14,37,12.80
2009,10,09,14,38,12.80
2009,10,09,14,39,12.80
2009,10,09,14,40,12.80
2009,10,09,14,41,12.70
2009,10,09,14,42,12.70
2009,10,09,14,43,12.60
2009,10,09,14,44,12.60
2009,10,09,14,45,12.50
2009,10,09,14,46,12.50
2009,10,09,14,47,12.50
2009,10,09,14,48,12.50
2009,10,09,14,49,12.50
2009,10,09,14,50,12.50
2009,10,09,14,51,12.60
2009,10,09,14,52,12.60
2009,10,09,14,53,12.60
2009,10,09,14,54,12.70
2009,10,09,14,55,12.70
2009,10,09,14,56,12.70
2009,10,09,14,57,12.70
2009,10,09,14,58,12.70
2009,10,09,14,59,12.60
2009,10,09,15,00,12.50
2009,10,09,15,01,12.40
2009,10,09,15,02,12.40
2009,10,09,15,03,12.40
2009,10,09,15,04,12.30
2009,10,09,15,05,12.30
2009,10,09,15,06,12.30
2009,10,09,15,07,12.20
2009,10,09,15,08,12.20
2009,10,09,15,09,12.10
2009,10,09,15,10,12.10
2009,10,09,15,11,12.00
2009,10,09,15,12,12.00
2009,10,09,15,13,12.00
2009,10,09,15,14,11.90
2009,10,09,15,15,11.90
2009,10,09,15,16,11.90
2009,10,09,15,17,11.90
2009,10,09,15,18,11.90
2009,10,09,15,19,11.80
2009,10,09,15,20,11.80
2009,10,09,15,21,11.80
2009,10,09,15,22,11.90
2009,10,09,15,23,11.90
2009,10,09,15,24,11.90
2009,10,09,15,25,11.90
2009,10,09,15,26,12.00
2009,10,09,15,27,12.00
2009,10,09,15,28,12.10
2009,10,09,15,29,12.10
2009,10,09,15,30,12.20
2009,10,09,15,31,12.20
2009,10,09,15,32,12.20
2009,10,09,15,33,12.30
2009,10,09,15,34,12.30
2009,10,09,15,35,12.30
2009,10,09,15,36,12.40
2009,10,09,15,37,12.40
2009,10,09,15,38,12.50
2009,10,09,15,39,12.60
2009,10,09,15,40,12.60
2009,10,09,15,41,12.60
2009,10,09,15,42,12.70
2009,10,09,15,43,12.70
2009,10,09,15,44,12.80
2009,10,09,15,45,12.80
2009,10,09,15,46,12.80
2009,10,09,15,47,12.80
2009,10,09,15,48,12.80
2009,10,09,15,49,12.80
2009,10,09,15,50,12.70
2009,10,09,15,51,12.70
2009,10,09,15,52,12.70
2009,10,09,15,53,12.70
2009,10,09,15,54,12.70
2009,10,09,15,55,12.60
2009,10,09,15,56,12.60
2009,10,09,15,57,12.60
2009,10,09,15,58,12.50
2009,10,09,15,59,12.50
2009,10,09,16,00,12.50
2009,10,09,16,01,12.60
2009,10,09,16,02,12.60
2009,10,09,16,03,12.60
2009,10,09,16,04,12.60
2009,10,09,16,05,12.60
2009,10,09,16,06,12.70
2009,10,09,16,07,12.70
2009,10,09,16,08,12.70
2009,10,09,16,09,12.70
2009,10,09,16,10,12.80
2009,10,09,16,11,12.80
2009,10,09,16,12,12.80
2009,10,09,16,13,12.90
2009,10,09,16,14,12.90
2009,10,09,16,15,12.90
2009,10,09,16,16,12.90
2009,10,09,16,17,12.90
2009,10,09,16,18,12.80
2009,10,09,16,19,12.80
2009,10,09,16,20,12.80
2009,10,09,16,21,12.80
2009,10,09,16,22,12.80
2009,10,09,16,23,12.80
2009,10,09,16,24,12.80
2009,10,09,16,25,12.70
2009,10,09,16,26,12.70
2009,10,09,16,27,12.60
2009,10,09,16,28,12.60
2009,10,09,16,29,12.60
2009,10,09,16,30,12.60
2009,10,09,16,31,12.50
2009,10,09,16,32,12.50
2009,10,09,16,33,12.50
2009,10,09,16,34,12.50
2009,10,09,16,35,12.50
2009,10,09,16,36,12.50
2009,10,09,16,37,12.50
2009,10,09,16,38,12.60
2009,10,09,16,39,12.60
2009,10,09,16,40,12.50
2009,10,09,16,41,12.50
2009,10,09,16,42,12.50
2009,10,09,16,43,12.50
2009,10,09,16,44,12.40
2009,10,09,16,45,12.40
2009,10,09,16,46,12.40
2009,10,09,16,47,12.40
2009,10,09,16,48,12.40
2009,10,09,16,49,12.40
2009,10,09,16,50,12.40
2009,10,09,16,51,12.40
2009,10,09,16,52,12.40
2009,10,09,16,53,12.30
2009,10,09,16,54,12.30
2009,10,09,16,55,12.30
2009,10,09,16,56,12.30
2009,10,09,16,57,12.30
2009,10,09,16,58,12.20
2009,10,09,16,59,12.20
2009,10,09,17,00,12.20
2009,10,09,17,01,12.20
2009,10,09,17,02,12.20
2009,10,09,17,03,12.20
2009,10,09,17,04,12.20
2009,10,09,17,05,12.30
2009,10,09,17,06,12.30
2009,10,09,17,07,12.30
2009,10,09,17,08,12.30
2009,10,09,17,09,12.30
2009,10,09,17,10,12.30
2009,10,09,17,11,12.30
2009,10,09,17,12,12.30
2009,10,09,17,13,12.30
2009,10,09,17,14,12.30
2009,10,09,17,15,12.30
2009,10,09,17,16,12.30
2009,10,09,17,17,12.30
2009,10,09,17,18,12.30
2009,10,09,17,19,12.30
2009,10,09,17,20,12.30
2009,10,09,17,21,12.30
2009,10,09,17,22,12.30
2009,10,09,17,23,12.30
2009,10,09,17,24,12.30
2009,10,09,17,25,12.30
2009,10,09,17,26,12.30
2009,10,09,17,27,12.30
2009,10,09,17,28,12.30
2009,10,09,17,29,12.30
2009,10,09,17,30,12.30
2009,10,09,17,31,12.30